Theta_e
347 348 347 345 346 348 347 346 347 347 346 348 349 348 348 350 349 350 349 348 346 345 345 349 348 340 333 339 343 344 348 342 331 332 332 329 328 327 328 329 331 334 336 338 340 341 344 345 347 349 350 348 346 344 344 342 340 338 334 329 327 328 329 330 329 328 327 328 328 329 330 330 333 337
348 349 349 347 347 348 348 347 348 347 344 346 348 349 349 348 350 351 351 350 349 346 346 349 351 348 343 347 351 353 352 343 332 333 331 329 328 327 329 330 331 334 337 339 341 343 345 345 347 349 350 347 344 343 344 343 341 337 329 325 325 326 326 324 323 321 321 320 321 322 323 324 326 329
347 347 347 346 346 346 346 346 348 348 346 347 349 349 349 349 349 350 351 352 350 348 350 349 349 352 349 345 346 350 352 345 334 331 331 329 327 329 333 332 331 334 336 339 341 342 343 345 347 350 349 346 344 343 345 344 340 332 326 324 325 324 323 321 321 320 320 320 319 320 321 321 323 324
351 348 346 345 345 344 344 343 346 348 347 346 348 350 350 349 349 349 349 352 352 350 350 348 350 352 349 345 340 339 347 349 337 331 331 329 327 335 342 338 332 332 334 336 340 339 341 345 348 350 349 346 345 344 344 342 336 329 325 324 324 323 322 321 321 320 320 319 319 319 319 320 320 321
354 349 345 345 346 345 343 342 346 349 348 346 347 349 350 349 350 350 348 352 354 351 347 348 351 348 343 346 343 334 341 347 339 332 331 330 329 330 341 346 336 331 332 333 336 339 339 344 347 348 349 347 344 343 341 338 332 328 325 324 324 322 322 322 321 321 320 319 320 319 319 319 318 319
350 348 345 345 346 346 345 342 345 350 350 348 349 350 351 351 352 351 347 348 352 352 350 347 348 348 342 343 342 335 336 338 334 332 330 335 335 326 336 349 339 328 330 330 333 337 337 341 345 346 347 345 343 340 338 335 331 328 326 324 324 323 322 322 322 321 320 319 319 319 319 318 319 319
347 347 346 347 348 350 349 344 344 349 350 350 350 349 350 350 350 352 347 342 345 350 349 344 346 351 345 339 338 334 334 334 333 335 331 333 338 327 333 350 344 328 328 327 329 334 335 338 343 346 346 344 342 339 338 337 334 329 326 325 324 323 322 323 322 321 321 320 319 319 319 319 319 319
348 349 348 348 350 351 350 345 345 349 349 349 348 349 349 346 344 347 345 341 341 343 343 340 340 343 339 335 335 333 334 335 333 335 331 330 334 328 334 351 348 331 326 327 329 332 334 336 340 344 347 345 344 343 342 343 338 331 327 325 324 323 323 323 323 322 321 321 320 319 319 320 319 319
342 345 347 348 350 350 349 346 346 349 349 347 348 349 350 347 343 342 343 342 342 340 339 339 337 337 336 335 334 331 332 334 333 335 334 332 334 329 333 348 349 340 333 328 326 328 330 335 338 340 344 346 347 347 347 348 344 336 329 325 324 324 323 323 323 322 322 321 321 321 319 319 320 319
334 337 340 343 346 347 347 347 349 351 348 345 346 347 347 347 345 343 341 341 341 339 339 339 336 336 336 334 334 332 330 331 332 334 335 340 343 337 332 338 345 350 348 337 328 328 328 331 335 336 340 344 345 347 348 349 348 341 331 326 325 323 323 323 323 322 322 322 321 321 320 320 319 319
336 337 337 338 341 341 341 344 348 349 346 344 345 344 342 342 342 343 345 343 341 341 341 342 342 342 341 337 336 336 330 328 330 332 334 342 348 343 335 332 337 347 348 341 336 333 329 329 332 335 339 342 342 345 348 349 349 344 335 328 325 324 323 323 323 323 322 322 322 321 320 320 320 319
336 339 340 342 344 343 339 338 342 345 346 345 345 344 341 340 339 342 348 349 345 345 347 347 347 346 344 338 334 335 334 333 338 342 340 339 342 344 344 341 338 337 340 346 349 343 332 327 327 329 336 341 343 344 345 347 349 347 340 330 326 324 323 323 323 323 323 322 323 322 320 320 319 319
330 332 337 342 345 344 338 334 335 340 342 343 344 344 341 339 338 338 343 346 344 343 345 347 347 347 345 343 341 344 346 346 346 345 342 339 344 349 350 348 346 341 341 351 355 349 344 340 335 332 335 339 342 343 343 345 348 348 344 335 327 324 323 323 323 322 323 323 322 322 321 320 319 319
326 327 331 336 337 335 332 331 332 334 336 338 340 342 340 339 340 339 339 340 341 343 345 346 349 351 351 350 348 349 350 350 349 347 349 350 352 352 351 351 352 348 345 350 348 343 348 349 344 342 342 341 343 345 345 345 346 348 346 339 330 325 323 323 323 322 323 323 322 321 320 320 319 319
326 326 327 330 331 329 328 330 331 330 333 336 336 337 337 338 340 341 340 340 342 345 347 349 350 351 351 350 348 344 344 348 352 354 355 354 352 353 353 355 355 350 345 348 342 338 345 345 339 344 346 343 344 346 345 346 346 347 347 343 332 325 323 323 322 323 323 323 322 321 319 319 319 318
325 325 326 329 333 333 329 329 331 330 330 332 334 335 336 336 336 337 338 338 340 343 347 350 351 349 349 349 347 345 342 344 350 352 351 350 348 349 352 354 355 352 347 345 341 344 350 345 338 344 346 340 340 344 345 345 346 346 348 344 334 326 323 323 322 322 323 322 322 321 320 319 319 319
325 326 325 327 331 332 330 328 330 331 330 329 331 332 334 335 335 334 334 335 336 338 341 345 346 344 343 340 338 339 336 332 335 340 345 349 346 345 348 350 352 350 346 344 344 347 351 348 344 347 346 337 335 340 343 345 345 347 349 346 336 327 324 323 322 322 323 323 321 321 320 319 319 319
327 326 326 326 327 328 328 328 330 331 331 330 330 330 331 332 333 334 334 334 334 334 335 337 337 336 335 333 332 332 331 327 328 331 339 345 346 344 345 346 345 342 338 340 344 347 350 350 349 350 348 341 336 336 340 344 345 347 349 347 338 330 325 323 322 322 323 322 321 321 320 320 319 319
328 327 327 327 327 328 328 328 330 331 332 331 330 330 330 331 332 332 332 334 334 334 334 334 334 334 333 333 332 332 332 332 331 332 335 339 342 341 339 338 338 339 338 339 343 348 351 352 351 351 350 347 341 336 339 344 347 347 349 348 341 332 326 324 322 322 322 322 321 320 320 320 320 319
332 329 329 329 328 329 330 330 330 331 332 333 332 331 330 330 331 334 334 333 332 333 335 333 334 334 334 334 333 332 335 335 333 333 336 336 337 338 339 340 342 346 346 346 346 349 352 352 352 352 352 349 346 341 338 342 347 348 349 349 344 335 328 325 323 322 322 321 321 321 320 320 319 319
338 333 332 331 330 331 331 331 331 331 332 333 332 333 332 331 332 337 341 340 334 331 331 332 332 332 332 333 333 332 333 333 332 334 334 334 339 345 348 348 349 348 347 347 348 351 352 351 351 352 351 349 347 345 342 342 347 349 349 349 347 339 330 325 323 322 322 322 321 320 320 320 319 318
345 340 336 333 331 332 332 332 332 332 332 333 334 333 334 333 332 333 339 344 343 338 334 332 332 332 331 332 333 332 332 332 333 334 333 333 341 350 352 351 351 349 347 347 349 351 351 350 350 351 351 348 347 348 347 346 348 349 349 349 349 343 333 326 323 322 321 321 320 320 320 319 319 318
350 347 342 337 334 333 333 333 333 333 333 334 334 334 335 335 333 333 337 342 345 347 346 339 334 334 334 334 334 334 335 334 334 334 333 332 336 343 346 348 350 350 348 347 348 347 348 350 350 350 351 350 350 350 350 349 350 351 350 349 350 345 337 327 323 322 321 321 320 320 320 319 318 318
353 352 348 342 336 333 334 334 334 334 334 334 335 336 337 336 335 335 340 343 345 349 351 349 345 342 339 337 338 337 336 336 334 334 333 333 333 335 340 345 349 349 348 348 347 345 346 349 350 351 351 351 351 351 350 350 351 351 350 349 350 347 338 329 324 322 322 321 321 319 319 319 318 318
355 355 353 348 340 335 335 334 334 334 334 335 335 336 337 337 336 337 341 345 346 346 346 348 350 348 344 341 343 342 341 340 338 335 334 333 333 334 336 341 346 348 346 346 347 347 346 346 347 350 351 350 351 351 351 350 350 351 350 349 349 346 337 329 324 322 321 321 321 320 319 319 318 318
355 355 355 352 346 338 335 335 335 335 335 336 336 337 337 337 338 339 341 342 344 345 346 347 349 350 349 348 348 348 348 348 346 341 337 334 333 333 334 335 341 346 346 346 348 348 346 343 344 348 351 351 350 351 351 350 349 350 349 348 348 344 336 328 325 322 321 322 321 320 319 318 318 318
355 355 356 355 351 343 337 336 336 336 337 337 337 337 338 338 340 342 344 344 344 346 348 350 352 353 352 351 351 350 349 349 350 349 346 341 336 334 334 334 336 342 344 346 347 346 342 341 341 344 347 349 349 351 351 350 349 349 348 348 346 342 335 328 324 322 321 321 321 320 320 319 318 318
356 356 356 357 355 350 343 340 339 338 338 338 338 339 340 341 343 345 346 346 346 346 347 349 351 353 351 349 351 352 349 346 348 351 351 347 340 337 339 339 338 339 341 343 344 343 342 342 341 342 343 347 349 352 351 350 350 349 348 347 344 340 335 328 324 322 321 321 321 320 320 319 318 318
355 356 356 356 356 356 353 349 345 341 339 339 340 341 341 343 345 347 347 347 347 348 348 348 350 351 349 348 348 347 344 342 344 346 347 346 343 341 342 343 342 341 340 340 342 341 341 341 340 340 343 346 349 351 351 350 350 349 347 345 341 336 334 329 324 322 321 321 321 320 319 319 318 318
354 355 355 355 356 356 357 356 352 348 344 342 342 343 344 345 346 347 348 348 348 348 349 349 350 351 351 350 347 344 342 342 343 344 345 345 345 344 343 344 344 344 342 341 341 340 339 340 339 340 344 345 347 350 350 350 351 349 346 345 340 334 333 330 324 321 322 322 321 320 319 318 318 318
354 355 355 355 356 355 356 358 356 353 350 347 345 344 344 345 346 348 348 348 348 348 348 349 351 352 352 351 348 345 344 344 345 344 345 345 344 345 344 345 345 345 344 342 341 340 343 346 345 345 346 346 347 349 350 350 351 349 345 342 340 335 332 329 325 321 322 322 321 320 319 319 318 318
354 355 355 356 357 357 358 358 358 356 352 349 347 346 346 346 347 348 349 348 348 349 349 350 350 351 352 352 349 347 346 347 346 345 346 345 345 345 347 347 346 346 346 346 344 345 348 349 348 347 349 349 349 351 351 351 350 349 343 341 341 337 331 328 325 322 322 322 321 320 319 318 319 319
354 354 355 356 356 358 358 358 358 356 354 352 349 348 348 348 348 348 349 349 348 348 349 350 351 351 352 353 352 350 348 347 346 346 347 347 347 347 349 350 349 349 350 350 350 350 350 349 348 347 349 350 350 351 352 350 349 347 342 340 342 339 331 326 325 323 322 321 321 320 320 319 319 320
354 353 355 356 356 357 358 358 357 356 356 355 353 352 350 349 349 349 349 349 349 349 349 348 350 350 352 352 353 353 351 347 346 347 348 349 349 349 350 352 353 352 352 352 352 352 352 350 349 348 348 349 350 351 351 350 348 346 342 339 340 338 330 326 325 324 322 321 321 321 324 323 321 320
353 352 354 355 355 356 357 357 358 357 356 355 355 355 354 353 352 351 349 350 350 350 350 350 350 350 350 351 353 354 353 351 350 350 352 352 351 351 351 353 353 353 353 353 352 352 352 351 349 349 350 352 352 352 351 349 348 346 341 337 337 336 331 326 325 323 321 320 319 321 324 326 325 323
353 353 354 354 355 356 357 358 358 358 357 356 356 356 357 356 356 354 353 352 351 350 351 351 352 351 350 351 352 353 354 354 353 353 354 354 353 352 352 353 353 353 353 353 351 351 352 351 350 350 351 352 352 351 350 350 349 347 343 338 336 335 331 326 324 324 322 320 319 320 323 326 327 326
356 356 355 355 355 356 357 358 358 359 359 358 357 357 357 357 358 357 357 356 354 352 351 352 352 352 351 352 352 352 352 354 354 354 354 354 353 352 352 352 353 354 354 353 353 354 354 352 351 351 351 351 351 349 348 349 348 348 346 342 337 334 330 327 324 323 322 320 320 321 322 325 327 327
358 358 358 357 357 356 356 357 356 358 358 359 359 359 358 358 358 358 358 358 358 357 355 354 354 354 353 353 353 353 353 354 356 356 355 354 354 354 353 352 353 354 355 355 355 355 355 354 353 352 352 351 350 348 346 346 348 348 347 344 339 333 330 326 324 323 323 323 322 323 324 325 326 326
359 359 359 358 358 358 358 357 357 358 359 359 359 359 358 359 359 359 359 358 358 358 358 357 356 356 355 354 354 355 355 356 356 356 356 355 355 355 354 353 353 354 354 355 355 356 356 355 355 354 353 351 351 349 346 345 347 347 345 344 341 335 329 326 323 324 326 326 325 325 325 324 324 324
360 360 359 359 359 359 359 359 359 359 359 360 360 360 360 360 359 359 359 359 359 359 358 358 358 357 356 356 356 355 355 356 356 355 355 355 355 355 354 353 354 354 355 356 356 355 356 356 356 355 354 352 352 352 348 345 345 343 341 341 340 334 328 325 323 325 327 328 328 328 327 326 325 325
360 360 359 358 359 359 359 360 361 360 360 361 361 360 361 361 360 359 358 359 359 359 359 359 358 358 356 356 357 356 356 356 355 355 354 354 355 354 354 354 354 355 355 355 355 356 356 356 356 355 355 353 353 352 349 346 344 343 342 341 338 332 326 324 323 325 327 328 329 329 329 328 327 328
360 359 358 358 358 359 359 360 361 361 361 361 361 361 361 361 361 360 359 359 358 359 359 360 360 360 358 357 356 356 356 356 355 355 354 354 355 355 355 354 354 355 355 355 355 356 356 356 356 355 354 352 351 351 349 347 344 342 341 338 334 329 325 324 323 323 325 328 329 329 328 328 327 328
360 359 358 357 358 359 359 359 360 361 361 361 362 363 362 361 360 360 360 359 359 358 359 360 360 359 358 358 357 357 357 356 355 355 355 355 355 355 355 355 354 354 355 356 356 356 355 355 355 355 354 352 350 349 348 345 342 341 339 336 333 329 326 323 322 322 323 324 326 326 326 327 328 327
360 360 360 359 359 359 360 360 360 361 361 362 363 363 362 361 361 360 360 360 359 358 359 360 359 358 357 358 357 357 356 355 355 355 355 355 355 355 356 355 354 355 355 356 355 355 355 355 354 354 354 353 351 350 346 342 340 339 337 335 334 331 327 323 322 322 322 322 323 323 324 324 325 325
360 360 361 360 360 360 360 360 361 362 362 362 362 363 362 361 361 361 360 360 359 358 358 359 359 359 358 358 357 357 356 356 356 356 355 356 356 356 355 355 355 355 356 356 355 355 355 354 353 352 352 350 350 349 345 340 338 338 337 335 333 330 325 322 322 322 322 323 323 323 323 324 324 324
Wind_Speed
6 6 7 8 7 7 7 6 4 5 5 2 1 1 1 2 2 2 2 2 1 2 2 3 7 10 8 8 9 10 10 12 14 14 14 16 19 21 21 21 21 21 20 21 21 20 20 19 17 14 13 13 12 12 12 14 17 20 22 22 20 18 16 15 14 13 13 11 11 10 10 10 10 10
6 7 7 8 8 8 9 7 6 7 7 4 3 3 2 2 2 3 3 3 2 3 3 2 5 10 9 7 7 8 10 13 15 14 14 15 17 21 21 21 21 21 22 22 22 21 20 18 16 13 12 12 12 13 14 16 18 21 23 22 20 18 16 16 16 15 14 12 11 9 8 8 8 9
6 7 7 8 8 9 9 8 7 8 8 6 5 5 4 4 4 4 4 4 4 4 5 5 5 7 9 8 7 7 9 13 14 14 14 14 17 20 22 22 21 21 23 23 22 21 20 19 15 12 12 13 14 15 16 17 20 22 23 22 19 18 18 18 17 17 16 15 14 12 10 9 8 8
7 8 8 8 8 8 9 9 8 9 9 8 7 7 6 5 6 5 5 6 7 6 5 6 6 6 8 9 10 9 9 11 15 15 14 15 16 16 18 22 22 22 23 23 21 21 21 20 17 14 14 15 16 17 17 18 21 23 23 21 19 19 19 19 19 19 19 18 17 16 15 13 11 9
9 9 9 8 8 8 8 8 8 8 9 9 8 8 8 7 7 7 7 7 8 8 6 6 6 7 7 7 10 11 9 10 14 14 14 14 15 14 13 17 21 22 23 22 21 22 22 21 19 17 16 16 16 17 18 20 21 23 23 21 19 19 20 20 20 20 20 20 19 19 18 16 14 12
10 10 10 9 9 9 8 8 8 8 9 9 9 9 8 8 7 8 8 8 9 9 7 6 6 8 8 7 9 11 10 12 13 13 13 12 13 15 12 12 19 22 22 22 21 21 22 22 20 19 18 17 17 17 18 20 21 22 22 21 20 20 20 21 21 21 21 21 21 21 20 17 15 13
10 11 11 10 10 9 9 9 9 9 10 10 10 10 10 10 9 9 10 11 10 10 9 8 7 8 9 9 9 11 11 12 13 13 14 12 12 15 13 10 17 22 23 22 20 20 22 22 20 20 19 18 17 18 18 20 21 22 22 21 20 20 20 21 21 21 22 22 22 21 21 19 16 14
11 12 12 12 11 11 12 11 11 11 11 12 12 12 12 12 11 11 12 12 11 12 12 10 8 9 10 10 10 11 11 12 13 13 15 13 12 14 12 8 15 22 23 22 21 20 20 21 20 20 19 19 18 18 19 20 21 22 22 21 20 20 20 21 21 21 22 22 22 22 21 19 17 15
12 13 13 13 13 13 14 14 13 12 13 13 13 12 12 12 12 12 12 13 13 13 13 12 11 10 10 11 11 11 11 12 14 14 15 15 15 15 11 7 13 20 21 22 22 21 20 20 20 20 20 19 19 19 19 20 20 21 22 21 20 20 20 20 20 21 22 22 22 21 21 20 18 16
12 13 14 14 15 15 15 15 14 14 15 15 15 14 14 14 14 14 14 14 14 15 15 14 14 13 12 13 13 13 12 12 13 14 15 14 14 15 13 10 10 13 17 21 22 22 21 20 19 20 20 20 20 20 20 20 20 21 21 21 20 20 20 20 20 21 22 22 22 21 20 19 18 17
13 14 14 15 16 16 17 16 16 16 16 17 17 17 17 16 16 15 15 15 16 16 16 16 15 14 14 14 13 14 14 14 14 14 14 12 12 15 17 14 10 8 12 17 18 20 22 20 18 18 19 20 21 21 21 20 20 20 21 21 21 20 20 20 20 21 22 22 22 21 20 19 18 17
16 16 16 16 16 17 18 17 17 17 17 18 18 18 18 18 18 17 15 16 16 16 16 16 15 15 15 16 16 15 15 14 13 12 13 14 14 15 16 16 13 11 10 12 14 19 21 21 20 20 20 20 21 20 20 20 20 20 20 21 21 20 20 20 20 21 21 22 22 21 19 18 18 17
19 18 18 17 17 18 19 19 18 18 19 19 19 19 19 19 19 19 18 18 18 18 17 17 16 16 16 16 15 13 12 12 12 12 14 14 14 13 14 15 14 12 9 7 11 15 16 17 20 20 20 22 22 22 22 22 21 20 19 20 20 20 20 20 20 20 21 22 21 20 19 17 17 17
22 21 20 20 20 20 20 20 19 20 21 21 21 21 21 20 19 20 20 20 20 19 19 18 16 15 15 13 12 12 11 12 12 12 12 12 11 12 14 13 12 13 11 8 11 14 11 12 15 16 17 21 22 21 22 22 21 20 19 20 20 19 20 19 19 20 20 21 21 19 18 17 17 17
24 24 23 22 22 23 22 21 21 22 22 23 22 22 22 22 21 20 21 22 21 20 20 18 17 16 15 14 14 13 12 11 11 10 10 11 12 13 13 12 11 14 14 12 15 16 12 13 15 12 12 17 19 19 19 20 21 20 19 20 19 18 19 19 19 19 20 20 19 18 17 17 17 17
26 26 26 25 24 24 24 24 23 23 24 24 24 24 24 24 24 24 24 24 23 22 21 19 19 18 17 17 16 14 13 12 12 12 13 14 15 15 14 13 13 14 14 15 18 16 11 14 17 12 12 16 17 17 19 19 20 20 19 19 19 18 18 18 19 19 19 19 18 17 17 17 17 18
28 28 28 27 26 26 26 26 25 25 25 25 26 27 27 28 28 28 27 27 26 26 24 24 24 23 22 22 20 18 17 17 17 17 16 15 16 17 17 16 16 16 17 17 18 16 13 15 15 11 15 19 18 17 17 18 18 19 19 18 18 18 18 18 18 19 19 18 18 17 17 17 18 18
31 30 30 30 30 29 29 29 28 27 27 27 27 28 29 30 30 30 30 29 29 29 28 29 28 27 27 26 25 23 22 22 21 20 19 17 16 18 19 19 20 21 22 21 19 16 14 14 12 10 14 20 21 19 18 17 17 18 18 18 18 17 18 18 18 18 18 18 17 17 17 17 18 18
34 33 33 33 33 31 31 31 30 29 28 29 29 30 30 31 31 32 32 32 31 30 30 31 30 29 29 28 27 25 24 23 22 21 20 19 18 19 20 21 22 22 23 22 19 16 12 12 12 10 13 20 23 22 19 16 17 18 17 17 17 17 18 18 18 18 18 17 17 16 17 17 18 19
37 37 36 35 35 34 33 32 32 30 29 30 31 31 32 32 32 32 32 33 32 31 30 31 30 29 29 29 29 27 24 23 23 21 20 20 21 20 20 21 20 18 17 19 20 17 12 10 11 11 13 18 21 21 20 17 15 17 17 16 17 17 17 18 17 17 18 17 17 17 17 17 18 18
39 39 39 38 37 36 35 34 33 32 31 31 32 32 33 33 33 31 29 30 32 32 31 31 31 31 29 29 29 28 26 25 24 24 24 24 21 19 18 19 18 15 14 15 17 17 14 12 12 11 13 17 16 15 18 18 15 16 17 16 16 17 17 17 17 16 17 17 16 16 16 17 17 17
39 40 40 40 39 38 36 35 34 33 32 33 33 33 34 34 35 34 29 26 28 31 32 31 30 31 31 30 29 29 28 27 26 26 27 25 21 18 18 18 18 17 16 15 16 18 17 14 13 11 13 18 16 13 17 21 17 15 17 17 17 18 17 16 16 16 16 16 15 15 15 15 16 16
38 40 41 41 40 39 37 36 36 35 34 34 34 34 34 35 37 35 31 28 27 26 29 31 31 30 30 29 29 29 28 27 27 28 28 27 25 23 22 20 18 18 18 15 17 20 17 13 13 13 13 14 14 14 18 22 20 18 19 18 17 17 17 16 15 15 15 15 15 14 14 14 14 15
37 39 41 42 42 40 39 38 37 37 36 36 35 34 35 37 37 35 31 29 28 27 26 28 28 28 27 26 27 29 29 29 30 30 29 29 28 27 26 22 20 19 18 16 19 22 19 13 13 14 14 13 13 15 19 21 22 23 22 19 18 17 16 15 14 13 14 15 14 13 12 12 13 13
36 37 39 42 43 41 39 38 38 38 38 37 36 36 37 37 37 35 32 30 29 30 30 28 27 27 28 27 26 27 28 29 31 31 31 30 29 29 28 25 22 21 19 19 21 23 21 18 15 15 16 16 14 17 21 22 23 24 21 19 19 18 16 15 13 13 13 14 14 13 12 11 12 12
36 36 37 39 42 42 40 38 38 39 38 38 38 38 38 37 36 35 34 32 31 31 31 30 28 28 27 27 26 26 26 26 27 29 31 31 30 30 30 28 26 24 20 20 22 24 23 22 19 17 18 18 16 16 18 18 21 23 21 18 18 17 16 15 13 12 13 13 13 13 11 11 11 11
35 35 35 37 39 40 40 39 38 38 38 39 39 38 37 36 35 34 33 33 33 32 31 29 26 25 26 26 26 26 26 25 25 25 27 29 29 28 28 29 29 28 24 22 25 27 26 24 22 21 21 20 18 17 15 14 18 22 20 18 18 18 16 14 13 12 13 13 13 12 11 10 10 10
35 34 33 34 36 38 39 38 38 37 37 38 38 37 35 34 33 33 33 33 34 34 33 31 27 25 27 28 26 26 27 27 26 25 26 28 28 26 25 27 28 28 27 26 27 27 26 25 25 24 24 22 20 19 18 17 18 21 20 19 19 19 17 15 13 13 13 13 12 11 10 10 10 10
36 34 32 31 32 34 35 35 35 36 37 38 37 35 34 33 32 33 34 34 34 34 34 33 30 27 28 30 29 28 27 26 27 27 26 27 27 25 24 25 27 27 27 28 29 28 27 27 28 27 25 23 20 18 18 18 18 19 21 20 18 18 19 17 14 13 13 12 12 11 9 9 10 10
37 35 32 31 32 33 33 32 32 34 35 36 35 34 33 33 34 35 36 36 37 36 35 32 29 27 27 29 30 29 26 24 25 26 25 25 25 25 25 25 26 27 27 28 29 30 30 29 29 28 26 24 22 21 20 19 17 17 21 22 19 17 20 19 15 14 14 12 12 11 9 9 9 8
36 34 32 31 31 32 33 32 32 32 33 34 35 36 36 36 37 37 38 38 38 39 37 34 30 29 29 29 29 28 27 26 26 26 26 26 25 26 26 26 26 27 27 28 29 30 28 25 24 24 24 23 24 24 23 20 18 17 21 25 22 19 20 20 17 16 14 13 12 11 9 9 9 8
35 32 30 30 31 31 33 34 33 33 35 36 37 38 38 38 39 39 38 39 39 39 37 35 34 33 31 30 31 31 30 29 28 26 26 27 27 27 27 27 27 27 26 26 26 25 25 24 23 23 23 22 23 24 23 21 18 17 21 26 26 21 20 21 20 18 16 13 12 12 10 10 9 9
31 29 28 30 32 31 31 31 30 30 33 35 38 39 40 39 40 40 40 41 42 41 40 38 36 34 32 30 31 32 32 32 30 28 27 28 28 28 28 27 27 27 26 24 23 24 26 27 24 25 27 26 25 26 24 21 18 18 21 26 27 23 21 21 20 20 17 14 12 12 11 10 10 10
28 32 32 32 33 30 28 27 26 26 28 30 33 36 38 39 41 42 43 43 43 42 43 42 40 38 36 34 32 31 32 33 32 31 30 29 28 28 28 25 24 25 24 23 23 24 26 27 24 26 30 30 28 29 27 21 19 20 21 24 26 25 22 21 21 21 19 15 13 13 11 10 11 10
26 35 37 36 36 33 31 30 29 28 29 29 29 29 31 34 36 39 42 44 44 43 43 43 43 42 41 39 36 33 33 34 33 32 30 29 29 29 26 23 23 23 23 23 23 23 26 28 27 25 28 29 29 30 30 27 25 23 21 21 25 27 24 22 23 24 21 17 15 14 11 10 12 11
24 30 33 35 37 36 34 31 27 27 29 31 30 28 28 29 30 31 34 37 41 44 43 42 42 42 43 42 39 37 35 34 34 34 31 29 31 30 26 24 25 25 24 24 23 22 26 30 29 26 25 27 28 28 29 29 29 27 24 22 25 27 26 24 25 25 22 19 18 15 13 12 12 12
24 26 29 32 34 35 34 29 26 27 29 30 31 31 30 29 29 28 27 28 31 36 40 41 41 41 40 40 39 39 38 36 34 34 33 31 31 30 29 28 27 25 25 24 22 23 27 31 32 29 26 26 26 25 24 26 28 28 28 28 27 26 26 26 26 25 23 21 19 17 14 12 12 13
27 27 28 31 31 32 32 31 30 30 28 27 30 33 32 31 30 30 29 29 28 27 29 33 36 38 38 38 36 36 36 35 33 32 31 29 28 28 30 30 26 23 24 24 23 26 31 33 33 32 29 26 25 24 24 27 30 30 30 30 29 27 26 27 27 25 23 21 19 17 15 13 13 14
32 30 31 32 31 30 30 30 31 31 29 27 29 32 32 31 32 31 31 32 31 28 26 27 29 31 33 35 36 34 32 32 32 31 29 29 30 29 29 30 27 23 24 24 23 28 34 35 35 35 33 30 29 25 25 28 31 30 28 28 28 29 28 27 26 24 21 20 18 16 15 15 14 14
35 33 33 32 29 27 27 26 26 28 30 29 30 32 31 30 31 32 32 31 31 31 30 29 28 27 28 29 31 33 32 31 32 31 28 30 33 31 29 30 29 26 25 24 25 30 36 39 38 36 33 31 30 28 28 29 29 29 28 26 25 28 28 27 25 23 20 18 18 16 15 15 13 12
37 38 37 33 29 27 27 27 26 28 30 30 31 33 32 30 31 32 32 31 31 31 31 31 30 30 30 29 29 30 30 30 31 31 28 29 32 32 30 31 31 28 26 27 31 36 40 40 38 35 31 29 28 29 32 34 32 32 32 28 25 27 28 27 26 24 20 18 18 17 15 13 12 11
32 35 37 37 35 33 33 33 31 30 31 31 31 31 30 30 29 29 30 31 33 34 33 30 28 29 29 29 29 29 29 29 30 31 31 31 31 30 30 32 34 33 32 32 35 36 36 37 37 34 32 31 31 32 35 37 36 35 34 29 25 25 26 27 28 27 24 22 20 18 15 13 12 12
27 28 31 33 34 35 37 37 34 30 29 30 28 27 28 30 30 31 32 33 33 32 31 30 29 30 30 29 29 30 31 31 30 30 31 32 30 29 30 33 37 38 37 35 33 32 33 36 37 34 31 31 33 34 35 36 37 36 34 30 28 26 25 27 30 30 29 26 24 20 17 15 14 13
27 26 25 25 26 27 29 31 30 28 29 30 26 24 28 31 31 33 36 36 33 33 32 30 32 36 36 34 33 34 36 37 35 32 30 30 29 28 29 32 35 37 36 33 32 32 34 37 37 34 31 31 33 35 34 35 37 38 36 32 29 27 26 28 31 31 29 28 25 21 19 18 17 16
27 27 26 26 26 25 24 24 25 26 28 29 26 26 29 31 32 34 36 36 35 36 35 33 34 36 35 34 34 36 38 39 37 32 29 28 28 29 31 33 35 37 35 32 31 33 35 37 37 36 34 31 32 36 37 37 38 39 36 32 29 27 27 29 31 30 28 26 23 21 20 20 20 19
Wind_Direction
222 227 233 229 221 223 227 227 236 248 243 234 251 271 310 348 2 3 5 10 356 354 345 310 314 323 340 351 346 347 341 337 345 347 345 347 347 346 347 351 355 356 354 353 352 352 351 351 354 357 3 6 9 14 17 18 15 9 5 2 1 2 3 2 0 357 353 346 339 333 330 329 321 311
216 217 227 232 230 233 235 232 241 253 250 244 248 248 257 302 339 339 336 336 316 325 334 320 317 322 334 347 342 336 329 331 339 339 337 342 343 343 344 351 358 358 357 358 357 357 356 355 359 7 13 15 16 19 19 18 14 8 4 4 4 5 5 5 7 8 8 7 3 0 354 345 334 320
228 224 225 230 232 236 239 234 232 242 243 236 242 246 248 273 295 305 317 309 299 316 314 303 316 320 321 326 326 325 325 325 329 332 331 332 340 346 344 347 356 357 357 1 359 358 359 359 5 16 18 19 20 19 17 14 10 7 5 5 6 5 5 6 12 16 18 19 20 21 22 15 3 346
238 237 234 235 236 237 240 236 227 234 238 233 237 245 249 265 280 285 294 295 297 305 295 296 311 310 309 318 319 323 326 321 323 328 326 327 341 352 344 339 348 354 355 358 358 357 1 4 9 17 19 21 20 16 14 11 8 5 4 5 6 5 4 6 13 18 20 22 25 27 28 25 20 9
241 243 240 238 238 237 238 236 226 229 238 238 240 246 249 256 265 272 280 285 291 297 292 290 299 299 305 312 311 316 318 313 316 322 323 328 337 349 347 332 337 348 351 353 356 357 1 4 8 14 17 20 18 15 13 9 6 4 2 4 4 3 3 5 10 16 21 24 26 26 26 24 21 16
244 248 247 242 241 240 237 233 225 224 233 237 239 244 247 248 252 264 274 279 284 291 291 288 294 300 305 306 304 308 309 306 311 316 321 327 329 338 348 328 328 343 347 347 354 357 358 2 5 8 14 17 17 14 12 8 4 2 1 1 1 360 0 3 7 13 19 24 26 25 24 22 19 16
246 249 250 247 243 243 241 237 230 226 230 232 233 236 241 247 252 260 269 275 278 282 283 284 290 291 294 299 300 303 306 307 312 314 317 323 321 329 345 330 322 336 341 342 351 355 355 358 1 4 9 13 14 12 9 6 2 360 359 359 358 357 358 1 4 9 15 21 24 23 22 21 18 15
244 246 249 248 245 244 244 244 239 235 235 235 236 240 246 254 257 255 261 269 272 275 278 280 283 282 288 297 299 303 307 306 308 308 311 317 314 321 341 329 313 328 335 337 346 350 352 354 356 0 5 5 7 6 3 2 360 358 357 356 355 354 356 359 2 6 11 16 20 21 21 21 19 16
245 244 245 247 245 245 246 247 245 242 243 242 242 244 247 253 257 254 256 261 265 271 275 279 283 285 290 296 296 300 303 302 305 307 309 314 312 316 332 324 311 323 329 332 338 342 348 352 351 355 360 359 359 358 356 356 356 355 354 353 352 351 353 357 0 4 8 12 15 17 19 20 20 19
250 247 246 245 244 244 245 246 245 243 245 246 245 245 245 248 253 256 257 259 263 269 273 277 283 286 288 293 295 298 298 296 298 301 305 310 310 311 317 318 319 322 318 323 332 336 340 346 347 349 353 354 354 353 351 351 353 353 351 349 348 349 351 355 359 2 6 9 11 13 16 19 20 20
252 251 250 248 246 246 246 245 245 244 246 247 247 248 249 250 252 255 258 261 264 268 271 275 280 283 285 288 292 295 296 295 296 296 298 300 302 306 309 312 316 304 300 313 325 329 332 336 341 347 348 348 349 349 348 348 350 351 348 345 344 347 350 354 358 1 4 7 8 9 12 15 18 19
252 250 249 248 246 248 249 246 243 244 245 246 247 249 250 251 253 253 252 256 261 263 266 269 272 275 279 284 290 292 292 294 293 290 290 292 297 302 305 309 308 301 305 314 316 320 325 328 334 341 343 343 343 343 346 348 349 348 344 341 342 344 348 353 357 360 3 5 7 8 10 13 15 17
254 252 249 247 245 246 249 248 244 243 244 245 246 247 250 252 253 254 252 253 258 261 262 264 267 271 276 282 288 287 284 284 284 283 285 288 292 293 296 304 304 302 313 309 299 312 322 323 327 332 335 336 336 338 343 348 349 346 341 338 340 342 346 352 356 360 3 5 7 8 9 12 15 16
254 255 253 251 249 249 250 249 245 242 243 245 245 245 249 251 251 253 255 255 257 259 260 261 263 265 268 272 276 277 278 279 280 281 280 280 283 284 290 298 295 295 303 297 296 310 311 303 311 320 324 328 330 334 340 344 344 343 338 336 339 340 343 349 355 360 2 5 8 9 10 12 14 15
251 253 254 254 256 256 254 251 248 245 243 244 245 246 248 250 250 250 252 254 256 256 258 259 259 260 262 265 269 273 277 275 272 270 270 274 279 281 284 288 286 289 294 293 304 315 305 293 303 307 309 317 321 325 332 337 339 340 337 336 338 340 342 347 353 359 2 4 7 9 11 13 13 13
249 250 252 254 256 257 257 255 252 249 246 244 245 246 247 249 250 250 251 253 254 254 256 257 257 259 261 264 268 271 271 269 266 267 271 275 279 279 279 280 281 284 285 289 303 312 299 294 304 303 298 309 316 320 327 331 334 336 336 336 338 339 341 345 351 358 2 3 6 9 11 13 13 11
249 249 250 252 253 255 258 258 255 252 251 248 246 247 247 248 250 251 252 252 253 253 255 256 258 261 264 268 271 272 271 272 273 274 273 273 276 277 277 278 278 281 286 292 299 302 291 290 298 295 294 306 316 320 322 325 329 332 334 336 337 338 339 344 349 356 1 2 5 8 9 12 13 10
248 248 249 251 253 255 257 258 255 253 253 252 250 249 249 250 251 252 252 253 253 253 253 255 260 263 267 270 274 274 274 275 276 277 274 271 272 274 275 277 279 281 287 292 293 291 286 285 288 283 286 299 311 316 318 321 324 328 331 333 335 336 337 342 348 353 358 1 3 5 7 9 10 10
247 247 248 250 252 253 255 256 255 253 252 253 253 253 252 252 253 254 254 254 254 255 256 258 261 264 267 270 272 273 273 274 276 277 275 273 273 274 275 278 281 284 289 292 289 286 280 276 280 279 281 292 302 309 313 317 319 322 327 329 332 335 335 340 346 350 355 359 0 2 4 6 8 10
247 247 247 248 250 251 252 253 253 253 251 250 252 253 254 254 255 256 257 258 257 257 259 261 263 264 265 267 269 271 269 270 273 273 272 272 273 275 277 279 281 282 283 286 286 283 276 269 270 271 274 284 293 301 307 313 315 318 323 325 328 333 335 337 342 347 352 355 357 359 1 3 7 10
247 247 246 246 247 248 250 251 251 251 249 248 249 250 252 254 254 254 256 260 263 263 262 263 265 266 266 265 267 269 267 266 268 267 268 270 271 270 271 274 277 276 270 271 275 275 272 269 270 266 264 274 283 291 300 311 316 315 318 323 326 330 333 334 338 343 348 352 354 356 359 2 5 6
247 248 247 245 245 245 247 248 249 248 246 245 246 247 250 252 254 254 253 255 262 267 267 265 263 264 265 265 264 266 266 266 265 264 267 271 267 260 260 265 271 273 270 263 258 263 269 271 271 264 260 274 283 279 287 302 309 308 312 317 320 326 329 330 334 338 343 347 349 351 357 1 3 3
248 249 248 246 243 242 243 244 245 246 244 243 243 245 247 249 253 255 253 251 253 258 264 268 266 263 263 264 265 265 264 264 263 263 267 269 263 258 259 262 264 267 271 265 256 261 268 269 270 264 257 272 283 273 279 294 299 298 303 307 310 319 324 325 330 333 336 340 343 346 353 358 0 4
249 250 249 248 244 241 240 240 242 243 243 242 242 242 243 247 251 253 253 251 250 249 252 261 266 267 265 263 264 264 263 262 262 263 265 267 265 262 260 259 258 260 265 265 259 263 269 268 265 262 255 261 270 269 276 286 290 294 300 302 305 312 317 319 323 326 329 333 335 338 347 353 357 2
249 250 250 250 247 243 239 238 239 241 242 242 241 241 243 247 250 251 249 248 250 251 252 254 256 261 263 263 263 264 265 265 265 265 265 263 263 262 260 257 254 256 262 265 262 265 269 268 264 260 257 258 260 265 271 277 281 287 291 292 297 305 309 311 315 318 322 325 326 330 340 346 351 357
250 249 250 251 250 247 242 239 238 240 242 242 241 241 244 246 247 248 248 248 249 251 255 255 254 255 256 257 257 257 258 259 263 267 269 267 263 261 261 260 256 254 258 262 262 263 266 268 265 258 256 258 258 259 262 267 277 284 285 282 286 294 300 303 306 311 314 316 318 323 331 339 346 352
251 251 251 252 253 250 246 242 240 240 241 242 242 242 243 245 245 246 248 249 248 248 249 250 250 249 249 250 249 249 250 251 251 255 261 266 268 265 261 259 258 256 255 256 258 262 265 267 267 262 258 258 258 255 249 251 268 280 281 279 280 286 291 292 293 299 303 306 310 314 320 329 339 344
250 250 251 252 254 254 251 247 244 242 241 242 243 243 242 242 243 245 246 246 246 246 246 246 245 244 246 248 246 245 249 252 250 246 247 255 263 265 259 256 256 256 256 254 256 260 263 264 265 266 264 259 254 251 248 249 261 271 272 271 273 278 283 283 282 287 291 294 298 302 310 321 329 334
248 248 249 251 255 257 257 254 251 247 243 242 243 243 242 241 241 242 243 244 244 244 244 245 245 244 245 249 251 251 253 255 254 252 250 252 256 257 256 255 256 257 258 257 257 259 261 261 263 264 263 261 256 252 249 250 254 259 262 264 265 267 273 275 274 276 281 284 287 291 299 308 315 322
248 248 248 249 252 257 260 260 256 251 247 245 244 243 241 239 239 238 239 240 241 241 242 243 244 244 244 248 254 258 258 254 251 251 252 253 254 255 256 257 257 258 260 260 260 260 259 259 260 260 259 259 259 256 255 254 249 246 252 258 255 254 264 268 265 267 272 274 275 279 284 291 300 310
250 251 251 252 253 256 259 261 259 255 251 246 243 241 239 236 236 236 237 238 239 241 242 243 243 244 244 246 251 256 258 254 251 251 251 253 255 257 258 259 258 260 262 263 264 263 258 253 254 257 257 256 256 257 257 254 246 240 243 248 248 249 259 264 259 258 263 264 265 268 271 278 287 294
252 253 255 255 255 254 256 257 257 255 250 245 242 240 238 236 235 235 236 238 239 240 241 242 244 244 244 246 248 251 254 254 253 252 252 254 255 255 255 255 257 259 261 263 264 261 254 248 247 249 253 254 253 256 258 252 246 240 238 245 251 251 250 256 257 254 254 253 254 257 259 264 274 284
251 253 254 254 252 250 251 252 252 251 250 247 245 244 243 240 238 236 235 236 238 238 239 240 241 242 242 243 244 245 249 253 255 255 254 254 253 253 252 250 251 253 255 257 256 254 254 255 248 240 243 246 247 251 253 247 242 236 232 243 255 252 241 244 249 249 249 246 240 243 249 254 261 271
251 247 247 249 248 246 244 244 244 245 246 247 247 248 248 246 243 240 238 238 238 239 240 240 241 242 243 244 244 244 246 250 254 256 255 253 252 252 252 250 248 248 248 249 249 249 252 257 253 242 242 246 248 250 250 244 241 241 237 244 255 253 242 238 239 242 247 244 229 224 232 242 252 260
249 243 242 244 245 244 243 243 242 242 243 245 246 246 246 246 246 245 244 243 242 242 243 243 243 244 245 246 246 246 246 248 250 251 250 250 250 251 251 249 246 245 244 245 247 245 244 249 254 251 248 248 249 251 251 248 244 241 236 238 248 251 246 238 237 242 245 240 228 219 213 218 236 249
244 242 241 241 241 243 242 241 240 240 241 242 244 244 243 243 243 244 246 247 247 247 248 249 249 248 248 250 251 251 250 248 248 246 243 243 246 248 249 247 246 244 244 245 246 244 242 247 252 252 248 247 247 247 250 253 250 242 233 232 240 248 248 240 238 242 242 236 233 226 212 205 217 232
249 249 248 246 245 244 242 241 239 239 240 240 241 243 244 243 242 242 245 248 251 251 252 254 254 254 253 253 253 254 254 252 248 245 243 241 243 247 249 249 248 246 244 246 245 243 244 249 252 249 243 243 243 241 244 251 253 245 239 235 235 241 244 238 235 240 240 235 234 231 220 210 208 217
252 251 250 252 252 249 247 246 245 243 241 239 240 242 243 243 244 244 244 247 250 251 252 253 254 255 256 255 254 253 253 251 247 245 244 241 240 243 247 248 247 245 245 245 242 242 246 250 251 250 243 237 238 236 233 240 248 248 243 238 232 232 237 239 237 238 236 232 231 229 223 215 212 220
251 249 248 251 255 256 255 253 251 248 244 240 239 242 242 243 245 246 245 246 248 249 250 251 250 251 253 255 253 250 249 248 246 244 244 242 239 239 243 246 245 244 245 244 240 243 248 249 249 251 248 242 243 242 235 239 250 251 245 239 233 230 234 239 237 232 228 226 226 225 223 221 224 234
253 251 249 248 252 256 255 251 248 249 249 245 243 243 243 244 248 250 248 247 247 248 250 251 249 248 249 249 250 250 249 247 246 245 245 245 242 240 242 245 245 243 242 242 242 246 251 252 254 257 257 252 251 250 241 239 244 244 239 236 230 225 228 234 232 224 220 221 220 218 221 227 233 247
256 253 250 248 247 249 250 248 247 249 251 250 250 250 250 249 251 253 253 252 249 247 248 249 249 251 251 248 246 247 246 243 243 245 245 246 246 244 241 240 242 241 240 243 248 253 257 260 261 263 261 256 250 245 239 236 235 236 238 236 225 219 225 231 227 219 215 216 217 215 219 226 230 240
254 254 251 249 248 249 250 252 252 252 252 252 253 254 254 253 254 258 260 258 253 250 250 250 250 251 252 249 246 245 244 242 243 245 245 244 244 245 243 240 241 244 246 249 255 259 260 262 262 260 258 253 246 241 239 237 233 233 236 232 219 213 220 227 225 219 213 211 212 215 219 224 229 236
246 249 251 251 250 250 251 253 253 251 250 251 251 252 253 253 257 261 262 259 256 255 254 251 249 247 247 247 247 247 247 246 244 243 243 242 239 239 241 244 247 251 254 256 258 258 257 259 261 260 256 250 246 243 240 236 231 230 229 225 218 214 217 222 223 220 216 215 217 220 221 223 229 236
242 244 247 249 250 250 250 251 251 249 248 249 249 249 251 253 255 258 259 260 262 261 256 251 249 249 247 246 245 245 247 248 246 241 240 240 239 237 238 243 250 256 258 258 256 255 255 257 259 259 255 251 249 246 239 230 226 226 224 221 222 221 217 215 215 215 216 221 225 227 229 234 239 242
245 245 244 244 245 247 248 248 248 248 249 249 248 247 250 253 256 258 260 263 265 264 260 257 256 255 252 249 248 248 250 252 250 245 240 240 243 244 242 242 248 255 258 257 254 254 256 256 255 255 254 252 251 248 239 228 223 222 220 219 221 222 216 211 210 210 216 223 228 231 237 243 247 250